GW2328 Weather Reports


Display with metric or nautical units.
time (UTC)temp
F
wind
direction
speed
MPH
gust
MPH
rain 1hr
in
rain 24hr
in
rain mn
in
humidity
%
barometer
mb
20260901140817 79 152 0.0 1.0 0.00 0.00 0.00 96 1023.6
20260901140315 79 146 2.0 2.0 0.00 0.00 0.00 97 1023.7
20260901135810 78 155 0.0 1.0 0.00 0.00 0.00 98 1023.7
20260901135305 78 216 0.0 1.0 0.00 0.00 0.00 99 1023.6
20260901134801 77 151 1.0 1.0 0.00 0.00 0.00 99 1023.8
20260901134301 77 155 0.0 1.0 0.00 0.00 0.00 99 1024.0
20260901133755 76 153 0.0 1.0 0.00 0.00 0.00 99 1023.8
20260901133254 75 188 1.0 1.0 0.00 0.00 0.00 99 1023.9
20260901132753 75 155 0.0 0.0 0.00 0.00 0.00 99 1023.9
20260901132248 74 151 0.0 0.0 0.00 0.00 0.00 99 1024.0
20260901131743 74 151 0.0 0.0 0.00 0.00 0.00 99 1023.9
20260901131242 73 151 0.0 0.0 0.00 0.00 0.00 99 1023.9
20260901130737 73 151 0.0 0.0 0.00 0.00 0.00 99 1024.0
20260901130237 73 151 0.0 0.0 0.00 0.00 0.00 99 1023.8
20260901125735 72 151 0.0 0.0 0.00 0.00 0.00 99 1023.9
20260901125230 72 151 0.0 0.0 0.00 0.00 0.00 99 1023.9
20260901124724 71 151 0.0 0.0 0.00 0.00 0.00 99 1024.0
20260901124219 71 151 0.0 0.0 0.00 0.00 0.00 99 1023.7
20260901123718 70 151 0.0 0.0 0.00 0.00 0.00 99 1023.6
20260901123214 70 151 0.0 0.0 0.00 0.00 0.00 99 1023.7
20260901122712 70 151 0.0 0.0 0.00 0.00 0.00 99 1023.9
20260901122207 69 151 0.0 0.0 0.00 0.00 0.00 99 1023.8
20260901121701 69 151 0.0 0.0 0.00 0.00 0.00 99 1023.8
20260901121156 69 151 0.0 0.0 0.00 0.00 0.00 99 1023.9
20260901120650 69 151 0.0 0.0 0.00 0.00 0.00 99 1023.8
20260901120146 68 151 0.0 0.0 0.00 0.00 0.00 99 1023.7
20260901115641 68 151 0.0 0.0 0.00 0.00 0.00 99 1023.9
20260901115137 68 151 0.0 0.0 0.00 0.00 0.00 99 1023.8
20260901114634 68 151 0.0 0.0 0.00 0.00 0.00 99 1023.7
20260901114133 68 151 0.0 0.0 0.00 0.00 0.00 99 1023.7
20260901113631 68 151 0.0 0.0 0.00 0.00 0.00 99 1023.6
20260901113126 68 151 0.0 0.0 0.00 0.00 0.00 99 1023.6
20260901112621 68 151 0.0 0.0 0.00 0.00 0.00 99 1023.5
20260901112115 68 151 0.0 0.0 0.00 0.00 0.00 99 1023.1
20260901111615 68 151 0.0 0.0 0.00 0.00 0.00 99 1023.1
20260901111114 68 151 0.0 0.0 0.00 0.00 0.00 99 1023.1
20260901110609 68 151 0.0 0.0 0.00 0.00 0.00 99 1022.9
20260901110104 69 151 0.0 0.0 0.00 0.00 0.00 99 1023.1
20260901105600 69 151 0.0 0.0 0.00 0.00 0.00 99 1022.8
20260901105054 69 151 0.0 0.0 0.00 0.00 0.00 99 1022.9
20260901104551 69 151 0.0 0.0 0.00 0.00 0.00 99 1022.9
20260901104046 69 151 0.0 0.0 0.00 0.00 0.00 99 1022.7
20260901103540 69 151 0.0 0.0 0.00 0.00 0.00 99 1022.8
20260901103036 69 151 0.0 0.0 0.00 0.00 0.00 99 1022.5
20260901102535 69 151 0.0 0.0 0.00 0.00 0.00 99 1022.5
20260901102030 69 151 0.0 0.0 0.00 0.00 0.00 99 1022.5
20260901101526 69 151 0.0 0.0 0.00 0.00 0.00 99 1022.7
20260901101019 69 151 0.0 0.0 0.00 0.00 0.00 99 1022.4
20260901100514 70 151 0.0 0.0 0.00 0.00 0.00 99 1022.4
20260901100013 70 151 0.0 0.0 0.00 0.00 0.00 99 1021.9
20260901095511 70 151 0.0 0.0 0.00 0.00 0.00 99 1022.2
20260901095004 70 151 0.0 0.0 0.00 0.00 0.00 99 1022.2
20260901094459 70 151 0.0 0.0 0.00 0.00 0.00 99 1022.1
20260901093959 70 151 0.0 0.0 0.00 0.00 0.00 99 1021.8
20260901093458 70 151 0.0 0.0 0.00 0.00 0.00 99 1022.0
20260901092953 70 151 0.0 0.0 0.00 0.00 0.00 99 1021.9
20260901092449 70 151 0.0 0.0 0.00 0.00 0.00 99 1021.8
20260901091945 69 151 0.0 0.0 0.00 0.00 0.00 99 1021.8
20260901091440 69 151 0.0 0.0 0.00 0.00 0.00 99 1021.9
20260901090935 70 151 0.0 0.0 0.00 0.00 0.00 99 1021.9
20260901090435 70 151 0.0 0.0 0.00 0.00 0.00 99 1021.7
20260901085930 70 151 0.0 0.0 0.00 0.00 0.00 99 1021.7
20260901085426 70 151 0.0 0.0 0.00 0.00 0.00 99 1021.6
20260901084922 70 151 0.0 0.0 0.00 0.00 0.00 99 1021.8
20260901084418 70 151 0.0 0.0 0.00 0.00 0.00 99 1021.8
20260901083914 70 151 0.0 0.0 0.00 0.00 0.00 99 1021.5
20260901083413 70 151 0.0 0.0 0.00 0.00 0.00 99 1021.6
20260901082912 70 151 0.0 0.0 0.00 0.00 0.00 99 1021.6
20260901082407 70 151 0.0 0.0 0.00 0.00 0.00 99 1021.7
20260901081902 70 151 0.0 0.0 0.00 0.00 0.00 99 1021.6
20260901081358 70 151 0.0 0.0 0.00 0.00 0.00 99 1021.6
20260901080857 70 151 0.0 0.0 0.00 0.00 0.00 99 1021.7
20260901080352 70 151 0.0 0.0 0.00 0.00 0.00 99 1021.7
20260901075851 71 151 0.0 0.0 0.00 0.00 0.00 99 1021.7
20260901075347 71 151 0.0 0.0 0.00 0.00 0.00 99 1021.6
20260901074841 71 151 0.0 0.0 0.00 0.00 0.00 99 1021.8
20260901074336 71 151 0.0 0.0 0.00 0.00 0.00 98 1021.6
20260901073827 71 151 0.0 0.0 0.00 0.00 0.00 98 1021.5
20260901073322 71 151 0.0 0.0 0.00 0.00 0.00 98 1021.6
20260901072818 71 151 0.0 0.0 0.00 0.00 0.00 98 1021.5
20260901072317 71 151 0.0 0.0 0.00 0.00 0.00 98 1021.6
20260901071813 71 151 0.0 0.0 0.00 0.00 0.00 98 1021.7
20260901071311 71 151 0.0 0.0 0.00 0.00 0.00 98 1021.8
20260901070810 71 151 0.0 0.0 0.00 0.00 0.00 98 1022.0
20260901070306 71 151 0.0 0.0 0.00 0.00 0.00 98 1021.8
20260901065805 71 151 0.0 0.0 0.00 0.00 0.00 98 1021.9
20260901065300 72 151 0.0 0.0 0.00 0.00 0.00 98 1022.0
20260901064756 72 151 0.0 0.0 0.00 0.00 0.00 98 1022.0
20260901064252 72 151 0.0 0.0 0.00 0.00 0.00 98 1021.7
20260901063750 72 151 0.0 0.0 0.00 0.00 0.00 98 1021.9
20260901063245 72 151 0.0 0.0 0.00 0.00 0.00 98 1022.0
20260901062741 72 151 0.0 0.0 0.00 0.00 0.00 98 1022.2
20260901062237 72 151 0.0 0.0 0.00 0.00 0.00 98 1021.9
20260901061733 72 151 0.0 0.0 0.00 0.00 0.00 97 1022.1
20260901061232 72 151 0.0 0.0 0.00 0.00 0.00 97 1021.9
20260901060727 72 151 0.0 0.0 0.00 0.00 0.00 97 1022.0
20260901060223 72 151 0.0 0.0 0.00 0.00 0.00 97 1022.3
20260901055718 73 151 0.0 0.0 0.00 0.00 0.00 97 1022.1
20260901055215 73 151 0.0 0.0 0.00 0.00 0.00 97 1022.2
20260901054711 73 151 0.0 0.0 0.00 0.00 0.00 97 1022.3
20260901054208 73 151 0.0 0.0 0.00 0.00 0.00 97 1022.5
20260901053703 73 151 0.0 0.0 0.00 0.00 0.00 97 1022.5
20260901053153 73 151 0.0 0.0 0.00 0.00 0.00 97 1022.2
20260901052648 73 151 0.0 0.0 0.00 0.00 0.00 97 1022.4
20260901052144 73 151 0.0 0.0 0.00 0.00 0.00 97 1022.3
20260901051643 73 151 0.0 0.0 0.00 0.00 0.00 96 1022.4
20260901051142 73 151 0.0 0.0 0.00 0.00 0.00 96 1022.1
20260901050637 73 151 0.0 0.0 0.00 0.00 0.00 96 1022.4
20260901050132 73 151 0.0 0.0 0.00 0.00 0.00 96 1022.4
20260901045627 73 151 0.0 0.0 0.00 0.00 0.00 96 1022.3
20260901045122 73 151 0.0 0.0 0.00 0.00 0.00 96 1022.1
20260901044618 74 151 0.0 0.0 0.00 0.00 0.00 96 1022.4
20260901044114 74 151 0.0 0.0 0.00 0.00 0.00 96 1022.5
20260901043609 74 152 0.0 0.0 0.00 0.00 0.00 95 1022.4
20260901043105 74 152 0.0 1.0 0.00 0.00 0.00 95 1022.3
20260901042603 74 150 0.0 0.0 0.00 0.00 0.00 95 1022.4
20260901042059 74 150 0.0 0.0 0.00 0.00 0.00 95 1022.3
20260901041555 75 147 0.0 0.0 0.00 0.00 0.00 95 1022.2
20260901041054 75 147 0.0 0.0 0.00 0.00 0.00 95 1022.2
20260901040554 75 147 0.0 0.0 0.00 0.00 0.00 94 1022.2
20260901040049 75 147 0.0 0.0 0.00 0.00 0.00 94 1022.1
20260901035547 75 147 0.0 0.0 0.00 0.00 0.00 94 1022.1
20260901035045 75 147 0.0 0.0 0.00 0.00 0.00 94 1021.9
20260901034540 75 147 0.0 0.0 0.00 0.00 0.00 94 1022.1
20260901034035 75 147 0.0 0.0 0.00 0.00 0.00 93 1022.1
20260901033533 75 147 0.0 0.0 0.00 0.00 0.00 93 1021.8
20260901033028 75 147 0.0 0.0 0.00 0.00 0.00 93 1021.9
20260901032526 75 147 0.0 0.0 0.00 0.00 0.00 93 1022.2
20260901032022 75 147 0.0 0.0 0.00 0.00 0.00 92 1022.0
20260901031517 76 147 0.0 0.0 0.00 0.00 0.00 92 1022.1
20260901031013 76 148 0.0 0.0 0.00 0.00 0.00 92 1022.2
20260901030512 76 148 0.0 0.0 0.00 0.00 0.00 92 1021.9
20260901030007 76 148 0.0 0.0 0.00 0.00 0.00 91 1022.0
20260901025507 76 148 0.0 0.0 0.00 0.00 0.00 91 1022.3
20260901025001 77 148 0.0 0.0 0.00 0.00 0.00 91 1022.0
20260901024456 77 148 0.0 0.0 0.00 0.00 0.00 91 1022.0
20260901023954 77 148 0.0 0.0 0.00 0.00 0.00 90 1022.1
20260901023449 77 148 0.0 0.0 0.00 0.00 0.00 90 1022.0
20260901022944 77 148 0.0 0.0 0.00 0.00 0.00 89 1021.8
20260901022440 77 148 0.0 0.0 0.00 0.00 0.00 89 1021.9
20260901021934 77 148 0.0 0.0 0.00 0.00 0.00 89 1021.9
20260901021430 78 148 0.0 0.0 0.00 0.00 0.00 88 1021.8
20260901020925 78 148 0.0 0.0 0.00 0.00 0.00 88 1022.0
20260901020421 78 148 0.0 0.0 0.00 0.00 0.00 87 1021.8
20260901015919 78 149 0.0 0.0 0.00 0.00 0.00 87 1021.8
20260901015416 78 149 0.0 0.0 0.00 0.00 0.00 87 1021.7
20260901014915 78 149 0.0 0.0 0.00 0.00 0.00 86 1021.4
20260901014412 79 149 0.0 0.0 0.00 0.00 0.00 85 1021.5
20260901013907 79 149 0.0 0.0 0.00 0.00 0.00 85 1021.7
20260901013402 79 149 0.0 0.0 0.00 0.00 0.00 84 1021.8
20260901012858 79 149 0.0 0.0 0.00 0.00 0.00 84 1021.3
20260901012353 80 149 0.0 0.0 0.00 0.00 0.00 83 1021.4
20260901011848 80 149 0.0 0.0 0.00 0.00 0.00 83 1021.4
20260901011344 80 149 0.0 0.0 0.00 0.00 0.00 82 1021.3
20260901010842 81 149 0.0 0.0 0.00 0.00 0.00 81 1021.3
20260901010337 81 149 0.0 0.0 0.00 0.00 0.00 80 1021.4
20260901005836 81 149 0.0 0.0 0.00 0.00 0.00 79 1021.3
20260901005331 82 149 0.0 0.0 0.00 0.00 0.00 78 1021.3
20260901004827 82 149 0.0 0.0 0.00 0.00 0.00 77 1021.3
20260901004320 83 149 0.0 0.0 0.00 0.00 0.00 76 1021.3
20260901003815 83 149 0.0 0.0 0.00 0.00 0.00 75 1021.4
20260901003310 83 149 0.0 0.0 0.00 0.00 0.00 74 1021.2
20260901002808 84 149 0.0 0.0 0.00 0.00 0.00 74 1021.2
20260901002305 84 149 0.0 0.0 0.00 0.00 0.00 73 1021.1
20260901001758 85 149 0.0 0.0 0.00 0.00 0.00 72 1021.1
20260901001254 85 149 0.0 0.0 0.00 0.00 0.00 71 1021.3
20260901000748 86 149 0.0 0.0 0.00 0.00 0.00 70 1021.4
20260901000241 86 149 0.0 0.0 0.00 0.00 0.00 70 1021.2
20260831235737 87 149 0.0 0.0 0.00 0.00 0.00 69 1021.1
20260831235233 87 149 0.0 0.0 0.00 0.00 0.00 68 1021.0
20260831234728 88 149 0.0 0.0 0.00 0.00 0.00 66 1021.1
20260831234227 88 149 0.0 0.0 0.00 0.00 0.00 65 1021.2
20260831233723 89 149 0.0 0.0 0.00 0.00 0.00 65 1020.9
20260831233218 89 190 0.0 1.0 0.00 0.00 0.00 64 1021.1
20260831232712 89 152 0.0 0.0 0.00 0.00 0.00 64 1021.0
20260831232209 89 148 0.0 1.0 0.00 0.00 0.00 63 1021.2
20260831231705 90 150 0.0 0.0 0.00 0.00 0.00 63 1021.1
20260831231201 90 148 0.0 0.0 0.00 0.00 0.00 62 1020.9
20260831230701 90 149 0.0 0.0 0.00 0.00 0.00 61 1021.0
20260831230156 90 147 0.0 0.0 0.00 0.00 0.00 61 1020.9
20260831225655 91 148 0.0 1.0 0.00 0.00 0.00 61 1020.9
20260831225150 91 148 0.0 3.0 0.00 0.00 0.00 60 1021.2
20260831224645 91 153 0.0 0.0 0.00 0.00 0.00 59 1020.9
20260831224140 91 149 0.0 2.0 0.00 0.00 0.00 59 1021.1
20260831223636 92 153 1.0 1.0 0.00 0.00 0.00 58 1020.9
20260831223132 92 158 1.0 2.0 0.00 0.00 0.00 57 1021.2
20260831222627 92 148 0.0 3.0 0.00 0.00 0.00 56 1021.0
20260831222123 93 163 1.0 2.0 0.00 0.00 0.00 56 1021.1
20260831221619 93 200 1.0 2.0 0.00 0.00 0.00 55 1021.2
20260831221114 94 169 1.0 3.0 0.00 0.00 0.00 54 1021.2
20260831220608 95 200 4.0 5.0 0.00 0.00 0.00 53 1021.3
20260831220104 96 177 0.0 2.0 0.00 0.00 0.00 53 1021.5
20260831215559 96 241 1.0 2.0 0.00 0.00 0.00 52 1021.4
20260831215054 96 153 0.0 3.0 0.00 0.00 0.00 52 1021.6
20260831214547 97 181 0.0 2.0 0.00 0.00 0.00 51 1021.4
20260831214042 97 150 0.0 1.0 0.00 0.00 0.00 52 1021.5
20260831213539 97 145 0.0 1.0 0.00 0.00 0.00 53 1021.5
20260831213034 97 169 1.0 1.0 0.00 0.00 0.00 53 1021.9
20260831212530 96 156 0.0 1.0 0.00 0.00 0.00 54 1021.6
20260831212025 96 145 0.0 2.0 0.00 0.00 0.00 54 1021.5
20260831211520 96 152 0.0 2.0 0.00 0.00 0.00 52 1021.6
20260831211019 97 189 2.0 2.0 0.00 0.00 0.00 51 1021.7
20260831210514 98 132 1.0 3.0 0.00 0.00 0.00 51 1021.7
20260831210010 97 148 0.0 2.0 0.00 0.00 0.00 52 1021.8
20260831205505 97 225 0.0 3.0 0.00 0.00 0.00 53 1022.0
20260831205001 97 147 1.0 3.0 0.00 0.00 0.00 54 1021.7
20260831204500 96 148 1.0 1.0 0.00 0.00 0.00 54 1022.0
20260831203954 96 176 1.0 2.0 0.00 0.00 0.00 54 1022.0
20260831203453 97 149 0.0 3.0 0.00 0.00 0.00 53 1021.9
20260831202951 98 166 2.0 2.0 0.00 0.00 0.00 53 1022.0
20260831202447 98 151 2.0 5.0 0.00 0.00 0.00 53 1022.1
20260831201946 97 220 0.0 1.0 0.00 0.00 0.00 54 1022.1
20260831201445 97 196 2.0 3.0 0.00 0.00 0.00 52 1022.3
20260831200941 98 149 1.0 2.0 0.00 0.00 0.00 52 1022.2
20260831200436 97 156 0.0 1.0 0.00 0.00 0.00 54 1022.3
20260831195935 97 148 1.0 2.0 0.00 0.00 0.00 53 1022.2
20260831195431 97 150 1.0 5.0 0.00 0.00 0.00 53 1022.4
20260831194926 96 183 3.0 5.0 0.00 0.00 0.00 54 1022.6
20260831194422 97 244 1.0 3.0 0.00 0.00 0.00 55 1022.5
20260831193921 96 143 0.0 1.0 0.00 0.00 0.00 55 1022.7
20260831193416 98 141 2.0 2.0 0.00 0.00 0.00 54 1022.5
20260831192911 97 148 0.0 2.0 0.00 0.00 0.00 54 1022.8
20260831192406 96 159 1.0 1.0 0.00 0.00 0.00 56 1022.6
20260831191902 96 148 1.0 5.0 0.00 0.00 0.00 55 1022.9
20260831191358 96 107 3.0 3.0 0.00 0.00 0.00 56 1022.8
20260831190854 95 211 2.0 2.0 0.00 0.00 0.00 58 1022.9
20260831190353 94 173 1.0 3.0 0.00 0.00 0.00 59 1023.1
20260831185853 93 162 0.0 2.0 0.00 0.00 0.00 60 1022.8
20260831185349 92 150 1.0 1.0 0.00 0.00 0.00 60 1023.1
20260831184848 93 132 2.0 3.0 0.00 0.00 0.00 58 1023.3
20260831184343 94 187 3.0 5.0 0.00 0.00 0.00 57 1023.3
20260831183838 94 154 2.0 3.0 0.00 0.00 0.00 58 1023.3
20260831183333 95 167 1.0 5.0 0.00 0.00 0.00 57 1023.4
20260831182832 95 131 1.0 2.0 0.00 0.00 0.00 57 1023.4
20260831182327 95 163 2.0 3.0 0.00 0.00 0.00 57 1023.4
20260831181823 95 154 1.0 3.0 0.00 0.00 0.00 58 1023.3
20260831181318 95 229 2.0 5.0 0.00 0.00 0.00 58 1023.5
20260831180812 95 182 1.0 6.0 0.00 0.00 0.00 58 1023.3
20260831180307 94 146 1.0 2.0 0.00 0.00 0.00 59 1023.5
20260831175806 93 163 2.0 3.0 0.00 0.00 0.00 59 1023.6
20260831175306 94 151 1.0 2.0 0.00 0.00 0.00 58 1023.7
20260831174758 95 142 2.0 6.0 0.00 0.00 0.00 58 1023.5
20260831174254 95 249 3.0 5.0 0.00 0.00 0.00 59 1023.6
20260831173753 95 148 0.0 2.0 0.00 0.00 0.00 59 1023.6
20260831173247 94 144 0.0 1.0 0.00 0.00 0.00 61 1023.7
20260831172742 93 177 1.0 2.0 0.00 0.00 0.00 62 1023.6
20260831172237 93 71 1.0 5.0 0.00 0.00 0.00 62 1023.8
20260831171732 91 144 0.0 2.0 0.00 0.00 0.00 64 1023.7
20260831171230 90 155 1.0 3.0 0.00 0.00 0.00 64 1023.8
20260831170726 91 153 2.0 3.0 0.00 0.00 0.00 62 1024.0
20260831170222 92 150 1.0 2.0 0.00 0.00 0.00 61 1024.0
20260831165718 93 157 2.0 2.0 0.00 0.00 0.00 61 1024.0
20260831165214 93 222 1.0 2.0 0.00 0.00 0.00 61 1024.1
20260831164704 93 123 1.0 6.0 0.00 0.00 0.00 62 1023.9
20260831164200 92 251 2.0 3.0 0.00 0.00 0.00 62 1024.0
20260831163655 93 143 1.0 1.0 0.00 0.00 0.00 62 1024.0
20260831163151 92 145 2.0 3.0 0.00 0.00 0.00 62 1023.9
20260831162650 92 142 1.0 2.0 0.00 0.00 0.00 63 1024.0
20260831162148 91 142 2.0 3.0 0.00 0.00 0.00 64 1024.1
20260831161644 92 229 3.0 3.0 0.00 0.00 0.00 64 1024.1
20260831161140 93 156 1.0 3.0 0.00 0.00 0.00 64 1024.2
20260831160639 92 159 1.0 3.0 0.00 0.00 0.00 64 1024.1
20260831160135 92 194 3.0 3.0 0.00 0.00 0.00 64 1024.2
20260831155634 92 165 3.0 3.0 0.00 0.00 0.00 66 1024.2
20260831155130 92 160 1.0 3.0 0.00 0.00 0.00 67 1024.2
20260831154625 91 146 0.0 2.0 0.00 0.00 0.00 67 1024.3
20260831154120 91 237 1.0 2.0 0.00 0.00 0.00 68 1024.2
20260831153619 91 148 2.0 5.0 0.00 0.00 0.00 69 1024.2
20260831153116 91 152 1.0 2.0 0.00 0.00 0.00 71 1024.1
20260831152611 91 234 1.0 2.0 0.00 0.00 0.00 73 1024.2
20260831152107 90 150 0.0 1.0 0.00 0.00 0.00 75 1024.1
20260831151606 89 137 0.0 1.0 0.00 0.00 0.00 76 1024.2
20260831151101 88 151 0.0 1.0 0.00 0.00 0.00 77 1024.4
20260831150556 88 178 1.0 2.0 0.00 0.00 0.00 79 1024.2
20260831150052 87 152 0.0 1.0 0.00 0.00 0.00 81 1024.3
20260831145546 86 135 1.0 1.0 0.00 0.00 0.00 83 1024.3
20260831145042 86 147 1.0 1.0 0.00 0.00 0.00 85 1024.6
20260831144538 85 151 1.0 1.0 0.00 0.00 0.00 86 1024.4
20260831144033 84 147 0.0 2.0 0.00 0.00 0.00 88 1024.4
20260831143527 84 153 1.0 1.0 0.00 0.00 0.00 90 1024.2
20260831143023 82 154 0.0 1.0 0.00 0.00 0.00 91 1024.2
20260831142520 82 148 0.0 1.0 0.00 0.00 0.00 93 1024.2
20260831142014 81 151 1.0 3.0 0.00 0.00 0.00 95 1024.2
20260831141508 79 153 0.0 1.0 0.00 0.00 0.00 96 1024.1